When you browse on this site, cookies collect data to enhance your experience and personalize the content and advertising you see.
Visit our Privacy Policy to learn more. By continuing to use the site, you agree to this use of cookies and data.
  • In Sweden
  • List of Countries
  • For 7 days
  • Water Temperature
  • Satellite Maps
  • Weather Map
  • Weather Widgets
  • user-avatar
    Login

    Hourly Weather Clinton

    Today, 17 July, Wednesday

    Time Temperature Precipitation Wind Pressure Humidity
    00:00 +24°C° 0.6 mm 2 mps 742 mmHg 94%
    01:00 +24°C° 0 mm 2 mps 742 mmHg 93%
    02:00 +23°C° 0 mm 2 mps 742 mmHg 93%
    03:00 +23°C° 0 mm 1 mps 742 mmHg 93%
    04:00 +23°C° 0 mm 1 mps 742 mmHg 93%
    05:00 +23°C° 0 mm 1 mps 742 mmHg 93%
    06:00 +24°C° 0 mm 2 mps 743 mmHg 93%
    07:00 +25°C° 0.1 mm 1 mps 743 mmHg 89%
    08:00 +27°C° 0.1 mm 1 mps 744 mmHg 84%
    09:00 +26°C° 0.1 mm 0 mps 744 mmHg 80%
    10:00 +29°C° 0.2 mm 1 mps 744 mmHg 76%
    11:00 +30°C° 0.2 mm 1 mps 744 mmHg 71%
    12:00 +31°C° 0.2 mm 1 mps 744 mmHg 67%
    13:00 +31°C° 0 mm 1 mps 743 mmHg 68%
    14:00 +32°C° 0 mm 2 mps 743 mmHg 70%
    15:00 +33°C° 0 mm 3 mps 742 mmHg 72%
    16:00 +31°C° 0 mm 3 mps 742 mmHg 75%
    17:00 +31°C° 0 mm 3 mps 742 mmHg 79%
    18:00 +30°C° 0 mm 3 mps 742 mmHg 83%
    19:00 +29°C° 0 mm 3 mps 742 mmHg 85%
    20:00 +28°C° 0 mm 3 mps 742 mmHg 87%
    21:00 +26°C° 0 mm 3 mps 742 mmHg 89%
    22:00 +26°C° 0.3 mm 4 mps 742 mmHg 89%
    23:00 +26°C° 0.3 mm 4 mps 741 mmHg 90%

    Tomorrow, 18 July, Thursday

    Time Temperature Precipitation Wind Pressure Humidity
    00:00 +26°C° 0.3 mm 5 mps 741 mmHg 90%
    01:00 +26°C° 0 mm 5 mps 741 mmHg 91%
    02:00 +26°C° 0 mm 5 mps 741 mmHg 92%
    03:00 +26°C° 0 mm 5 mps 740 mmHg 92%
    04:00 +26°C° 0 mm 5 mps 740 mmHg 93%
    05:00 +26°C° 0 mm 5 mps 740 mmHg 94%
    06:00 +26°C° 0 mm 5 mps 740 mmHg 94%
    07:00 +27°C° 0 mm 6 mps 740 mmHg 91%
    08:00 +29°C° 0 mm 6 mps 740 mmHg 87%
    09:00 +30°C° 0 mm 7 mps 740 mmHg 84%
    10:00 +32°C° 0 mm 6 mps 740 mmHg 82%
    11:00 +33°C° 0 mm 6 mps 740 mmHg 81%
    12:00 +34°C° 0 mm 6 mps 740 mmHg 79%
    13:00 +34°C° 0 mm 6 mps 739 mmHg 79%
    14:00 +34°C° 0 mm 6 mps 739 mmHg 79%
    15:00 +34°C° 0 mm 7 mps 739 mmHg 79%
    16:00 +34°C° 0 mm 6 mps 739 mmHg 82%
    17:00 +33°C° 0 mm 6 mps 739 mmHg 84%
    18:00 +33°C° 0 mm 5 mps 738 mmHg 87%
    19:00 +32°C° 0 mm 5 mps 739 mmHg 86%
    20:00 +30°C° 0 mm 5 mps 739 mmHg 86%
    21:00 +30°C° 0 mm 4 mps 739 mmHg 86%
    22:00 +30°C° 0 mm 5 mps 739 mmHg 84%
    23:00 +29°C° 0 mm 5 mps 739 mmHg 81%

    Day after tomorrow, 19 July, Friday

    Time Temperature Precipitation Wind Pressure Humidity
    00:00 +29°C° 0 mm 5 mps 739 mmHg 79%
    01:00 +29°C° 0 mm 5 mps 739 mmHg 81%
    02:00 +28°C° 0 mm 4 mps 739 mmHg 82%
    03:00 +28°C° 0 mm 4 mps 739 mmHg 83%
    04:00 +28°C° 0.1 mm 4 mps 739 mmHg 86%
    05:00 +27°C° 0.1 mm 3 mps 740 mmHg 89%
    06:00 +27°C° 0.1 mm 3 mps 740 mmHg 92%
    07:00 +28°C° 0 mm 4 mps 740 mmHg 89%
    08:00 +29°C° 0 mm 4 mps 741 mmHg 86%
    09:00 +30°C° 0 mm 5 mps 741 mmHg 83%
    10:00 +32°C° 0 mm 5 mps 741 mmHg 82%
    11:00 +33°C° 0 mm 5 mps 741 mmHg 81%
    12:00 +34°C° 0 mm 5 mps 741 mmHg 81%
    13:00 +34°C° 0 mm 6 mps 741 mmHg 81%
    14:00 +34°C° 0 mm 6 mps 741 mmHg 81%
    15:00 +34°C° 0 mm 6 mps 740 mmHg 81%
    16:00 +34°C° 0 mm 6 mps 740 mmHg 83%
    17:00 +33°C° 0 mm 6 mps 740 mmHg 85%
    18:00 +33°C° 0 mm 5 mps 740 mmHg 88%
    19:00 +32°C° 0 mm 5 mps 740 mmHg 88%
    20:00 +30°C° 0 mm 4 mps 740 mmHg 89%
    21:00 +29°C° 0 mm 4 mps 740 mmHg 89%
    22:00 +29°C° 0 mm 4 mps 740 mmHg 90%
    23:00 +28°C° 0 mm 3 mps 740 mmHg 91%

    20 July, Saturday

    Time Temperature Precipitation Wind Pressure Humidity
    00:00 +28°C° 0 mm 3 mps 740 mmHg 92%
    01:00 +28°C° 0 mm 3 mps 740 mmHg 92%
    02:00 +27°C° 0 mm 3 mps 741 mmHg 92%
    03:00 +27°C° 0 mm 3 mps 741 mmHg 92%
    04:00 +27°C° 0 mm 3 mps 741 mmHg 92%
    05:00 +27°C° 0 mm 3 mps 741 mmHg 92%
    06:00 +27°C° 0 mm 3 mps 741 mmHg 93%
    07:00 +28°C° 0 mm 4 mps 741 mmHg 90%
    08:00 +29°C° 0 mm 4 mps 742 mmHg 86%
    09:00 +30°C° 0 mm 4 mps 742 mmHg 83%
    10:00 +31°C° 0 mm 3 mps 742 mmHg 81%
    11:00 +33°C° 0 mm 3 mps 742 mmHg 80%
    12:00 +32°C° 0 mm 2 mps 743 mmHg 78%
    13:00 +32°C° 0.1 mm 2 mps 742 mmHg 78%
    14:00 +32°C° 0.1 mm 2 mps 742 mmHg 78%
    15:00 +32°C° 0.1 mm 1 mps 742 mmHg 79%
    16:00 +32°C° 0 mm 2 mps 742 mmHg 82%
    17:00 +32°C° 0 mm 2 mps 741 mmHg 85%
    18:00 +32°C° 0 mm 2 mps 741 mmHg 87%
    19:00 +31°C° 0.2 mm 2 mps 741 mmHg 89%
    20:00 +30°C° 0.2 mm 2 mps 741 mmHg 90%
    21:00 +29°C° 0.2 mm 2 mps 742 mmHg 92%
    22:00 +28°C° 3.2 mm 2 mps 741 mmHg 94%
    23:00 +27°C° 3.2 mm 2 mps 741 mmHg 95%

    21 July, Sunday

    Time Temperature Precipitation Wind Pressure Humidity
    00:00 +26°C° 3.2 mm 2 mps 741 mmHg 97%
    01:00 +26°C° 3.5 mm 3 mps 741 mmHg 96%
    02:00 +25°C° 3.5 mm 4 mps 741 mmHg 95%
    03:00 +25°C° 3.5 mm 5 mps 741 mmHg 94%
    04:00 +23°C° 5.8 mm 5 mps 741 mmHg 95%
    05:00 +23°C° 5.8 mm 5 mps 741 mmHg 95%
    06:00 +23°C° 5.8 mm 5 mps 742 mmHg 96%
    07:00 +23°C° 2.3 mm 4 mps 742 mmHg 95%
    08:00 +25°C° 2.3 mm 3 mps 742 mmHg 95%
    09:00 +25°C° 2.3 mm 3 mps 742 mmHg 94%
    10:00 +26°C° 0 mm 2 mps 742 mmHg 92%
    11:00 +27°C° 0 mm 2 mps 743 mmHg 90%
    12:00 +27°C° 0 mm 2 mps 743 mmHg 88%
    13:00 +28°C° 0.3 mm 2 mps 743 mmHg 86%
    14:00 +29°C° 0.3 mm 3 mps 743 mmHg 85%
    15:00 +29°C° 0.3 mm 3 mps 743 mmHg 84%
    16:00 +29°C° 0.4 mm 3 mps 743 mmHg 86%
    17:00 +28°C° 0.4 mm 4 mps 743 mmHg 88%
    18:00 +28°C° 0.4 mm 4 mps 743 mmHg 90%
    19:00 +26°C° 0 mm 4 mps 743 mmHg 91%
    20:00 +25°C° 0 mm 3 mps 744 mmHg 92%
    21:00 +22°C° 0 mm 3 mps 744 mmHg 92%
    22:00 +22°C° 0 mm 3 mps 744 mmHg 93%
    23:00 +21°C° 0 mm 3 mps 744 mmHg 93%

    22 July, Monday

    Time Temperature Precipitation Wind Pressure Humidity
    00:00 +20°C° 0 mm 3 mps 744 mmHg 94%
    01:00 +20°C° 0 mm 3 mps 745 mmHg 94%
    02:00 +19°C° 0 mm 2 mps 745 mmHg 94%
    03:00 +19°C° 0 mm 2 mps 745 mmHg 94%
    04:00 +19°C° 0 mm 2 mps 745 mmHg 94%
    05:00 +19°C° 0 mm 2 mps 746 mmHg 94%
    06:00 +19°C° 0 mm 2 mps 746 mmHg 95%
    07:00 +20°C° 0 mm 3 mps 746 mmHg 88%
    08:00 +21°C° 0 mm 4 mps 747 mmHg 82%
    09:00 +22°C° 0 mm 5 mps 747 mmHg 75%
    10:00 +22°C° 0 mm 5 mps 748 mmHg 72%
    11:00 +23°C° 0 mm 5 mps 748 mmHg 70%
    12:00 +25°C° 0 mm 5 mps 748 mmHg 67%
    13:00 +25°C° 0 mm 4 mps 748 mmHg 67%
    14:00 +25°C° 0 mm 4 mps 748 mmHg 67%
    15:00 +26°C° 0 mm 4 mps 748 mmHg 67%
    16:00 +25°C° 0 mm 4 mps 748 mmHg 70%
    17:00 +25°C° 0 mm 3 mps 748 mmHg 73%
    18:00 +24°C° 0 mm 3 mps 748 mmHg 77%
    19:00 +21°C° 0 mm 3 mps 748 mmHg 79%
    20:00 +20°C° 0 mm 2 mps 748 mmHg 82%
    21:00 +18°C° 0 mm 2 mps 748 mmHg 84%
    22:00 +18°C° 0 mm 2 mps 748 mmHg 85%
    23:00 +17°C° 0 mm 2 mps 748 mmHg 87%
    Show more